User: anonymous   Login
Location: Campillo
(40.8621°N, 4.2488°W)
Time: 01:18:20
(UTC+00:00)
Language:

Cosmos 1536 - Orbit

View from above orbital plane
View from above orbital plane
View from above satellite
View from above satellite

Ground track
Ground track

The orbit data is extracted from the following two-line orbital elements,

1 14699U 84013A   21208.54140077 -.00000048  00000-0 -53440-5 0  9991
2 14699  82.5273 315.1311 0011474 338.7601  21.3148 15.05849977 17820
Epoch (UTC): 27 July 2021 12:59:37
Eccentricity: 0.0011474
inclination: 82.5273°
perigee height: 541 km
apogee height: 557 km
right ascension of ascending node: 315.1311°
argument of perigee: 338.7601°
revolutions per day: 15.05849977
mean anomaly at epoch: 21.3148°
orbit number at epoch: 1782

The dashed part of the orbit path shows where the satellite is in the earth's shadow,  

DLR